CW3996 Weather Reports


Display with metric or nautical units.
time (UTC)temp
F
wind
direction
speed
MPH
gust
MPH
rain 1hr
in
rain 24hr
in
rain mn
in
humidity
%
barometer
mb
20260901063225 55 56 3.0 6.0 0.00 0.48 0.00 69 1019.5
20260901062739 55 56 3.0 5.0 0.00 0.48 0.00 70 1019.5
20260901062216 55 56 4.0 5.0 0.00 0.48 0.00 69 1019.5
20260901061730 55 54 3.0 5.0 0.00 0.48 0.00 69 1019.5
20260901061224 55 54 0.0 5.0 0.00 0.48 0.00 68 1019.4
20260901060718 56 54 3.0 5.0 0.00 0.48 0.00 68 1019.4
20260901060213 56 53 1.0 7.0 0.00 0.48 0.00 67 1019.4
20260901055727 56 53 4.0 7.0 0.00 0.48 0.48 67 1019.4
20260901055221 56 54 5.0 7.0 0.00 0.48 0.48 67 1019.6
20260901054718 56 55 4.0 6.0 0.00 0.48 0.48 67 1019.6
20260901054213 56 55 2.0 3.0 0.00 0.48 0.48 67 1019.6
20260901053727 56 55 1.0 5.0 0.00 0.48 0.48 67 1019.7
20260901053221 56 55 2.0 7.0 0.00 0.48 0.48 66 1019.8
20260901052714 56 55 3.0 7.0 0.00 0.48 0.48 66 1020.0
20260901052228 57 55 5.0 7.0 0.00 0.48 0.48 64 1020.0
20260901051742 57 55 4.0 6.0 0.00 0.48 0.48 63 1020.2
20260901051215 57 55 4.0 6.0 0.00 0.48 0.48 64 1020.2
20260901050714 57 46 2.0 12.0 0.00 0.48 0.48 63 1020.3
20260901050229 58 46 5.0 12.0 0.00 0.48 0.48 62 1020.2
20260901045722 57 45 9.0 11.0 0.00 0.48 0.48 64 1020.0
20260901045216 57 44 5.0 12.0 0.00 0.48 0.48 65 1020.0
20260901044731 57 43 6.0 15.0 0.00 0.48 0.48 66 1019.7
20260901044225 57 49 12.0 18.0 0.00 0.48 0.48 65 1019.6
20260901043718 58 31 12.0 18.0 0.00 0.48 0.48 62 1019.5
20260901042726 63 121 8.0 12.0 0.00 0.48 0.48 48 1019.0
20260901042224 63 144 7.0 12.0 0.00 0.48 0.48 48 1019.0
20260901041718 63 142 4.0 13.0 0.00 0.48 0.48 50 1019.0
20260901041233 63 141 7.0 14.0 0.00 0.48 0.48 49 1018.9
20260901040726 63 146 9.0 15.0 0.00 0.48 0.48 48 1019.3
20260901040222 63 155 11.0 18.0 0.00 0.48 0.48 48 1019.3
20260901035735 63 153 12.0 23.0 0.00 0.48 0.48 49 1019.3
20260901035228 62 118 11.0 23.0 0.00 0.48 0.48 49 1019.2
20260901034722 62 132 14.0 22.0 0.01 0.48 0.48 51 1019.2
20260901034220 61 156 13.0 24.0 0.01 0.48 0.48 52 1019.0
20260901033714 61 183 14.0 25.0 0.01 0.48 0.48 53 1018.9
20260901033248 60 136 16.0 31.0 0.02 0.48 0.48 55 1018.8
20260901032721 59 138 15.0 31.0 0.03 0.48 0.48 59 1018.5
20260901032215 58 119 18.0 32.0 0.03 0.48 0.48 62 1018.6
20260901031729 58 116 20.0 32.0 0.04 0.48 0.48 62 1019.6
20260901031243 58 125 17.0 24.0 0.04 0.48 0.48 64 1020.2
20260901030715 58 142 18.0 25.0 0.05 0.48 0.48 66 1020.8
20260901030215 58 155 13.0 22.0 0.05 0.48 0.48 68 1021.3
20260901025728 58 155 11.0 22.0 0.05 0.48 0.48 69 1021.5
20260901025243 58 163 15.0 21.0 0.05 0.48 0.48 69 1021.7
20260901024715 58 144 12.0 20.0 0.04 0.47 0.47 69 1021.9
20260901024229 57 207 10.0 20.0 0.04 0.47 0.47 70 1022.0
20260901023722 57 173 13.0 20.0 0.04 0.47 0.47 70 1022.2
20260901023216 57 214 13.0 20.0 0.03 0.46 0.46 70 1022.3
20260901022730 58 198 14.0 21.0 0.02 0.45 0.45 70 1022.4
20260901022245 58 195 15.0 21.0 0.02 0.45 0.45 70 1022.3
20260901021718 58 190 13.0 22.0 0.01 0.44 0.44 70 1022.2
20260901021236 58 200 15.0 22.0 0.01 0.44 0.44 69 1022.3
20260901020729 59 205 10.0 20.0 0.00 0.43 0.43 69 1022.2
20260901020245 59 217 15.0 20.0 0.00 0.43 0.43 69 1022.1
20260901015717 60 217 10.0 18.0 0.00 0.43 0.43 69 1022.0
20260901015231 60 224 10.0 15.0 0.00 0.43 0.43 69 1021.9
20260901014725 60 218 8.0 15.0 0.00 0.43 0.43 68 1021.8
20260901014219 61 234 11.0 18.0 0.00 0.43 0.43 66 1021.6
20260901013712 62 225 12.0 18.0 0.00 0.43 0.43 64 1021.5
20260901013226 62 217 10.0 16.0 0.00 0.43 0.43 59 1021.3
20260901012723 63 208 8.0 16.0 0.00 0.43 0.43 56 1021.0
20260901012218 63 150 11.0 17.0 0.00 0.43 0.43 54 1020.7
20260901011713 63 157 10.0 17.0 0.00 0.43 0.43 55 1020.6
20260901011227 62 140 11.0 20.0 0.00 0.43 0.43 56 1020.2
20260901010720 62 167 11.0 20.0 0.00 0.43 0.43 55 1020.0
20260901010216 62 136 7.0 16.0 0.00 0.43 0.43 58 1019.7
20260901005729 62 118 10.0 20.0 0.00 0.43 0.43 58 1019.4
20260901005224 63 131 13.0 20.0 0.00 0.43 0.43 55 1019.7
20260901004722 63 126 9.0 12.0 0.01 0.43 0.43 56 1019.7
20260901004215 62 135 3.0 18.0 0.01 0.43 0.43 57 1019.7
20260901003748 62 136 4.0 18.0 0.02 0.43 0.43 56 1019.5
20260901003241 62 141 12.0 17.0 0.02 0.43 0.43 56 1019.7
20260901002714 62 123 12.0 17.0 0.02 0.43 0.43 58 1019.8
20260901002228 61 124 11.0 16.0 0.02 0.43 0.43 62 1020.2
20260901001722 61 129 10.0 16.0 0.03 0.43 0.43 64 1020.5
20260901001216 61 125 12.0 16.0 0.04 0.43 0.43 64 1021.0
20260901000730 60 124 9.0 13.0 0.05 0.43 0.43 67 1021.2
20260901000228 60 114 5.0 10.0 0.05 0.43 0.43 69 1021.4
20260831235722 59 74 3.0 6.0 0.06 0.43 0.43 69 1021.6
20260831235216 60 74 3.0 14.0 0.06 0.43 0.43 67 1021.9
20260831234731 60 73 8.0 14.0 0.06 0.42 0.42 67 1022.1
20260831234245 60 132 8.0 10.0 0.06 0.42 0.42 69 1022.3
20260831233737 60 158 4.0 7.0 0.05 0.41 0.41 69 1022.9
20260831233250 60 158 3.0 5.0 0.05 0.41 0.41 67 1023.1
20260831232721 60 158 1.0 5.0 0.05 0.41 0.41 67 1023.2
20260831232215 60 158 3.0 5.0 0.05 0.41 0.41 67 1023.2
20260831231729 60 158 3.0 6.0 0.04 0.40 0.40 67 1023.2
20260831231228 60 158 3.0 7.0 0.03 0.39 0.39 66 1023.2
20260831230721 60 158 5.0 8.0 0.02 0.38 0.38 66 1023.1
20260831230216 60 158 6.0 8.0 0.02 0.38 0.38 66 1023.0
20260831225730 60 159 5.0 9.0 0.01 0.37 0.37 66 1022.9
20260831225223 60 177 1.0 6.0 0.01 0.37 0.37 65 1022.9
20260831224717 60 177 1.0 6.0 0.00 0.36 0.36 65 1022.8
20260831224232 60 177 4.0 6.0 0.01 0.36 0.36 65 1022.6
20260831223725 60 178 2.0 5.0 0.03 0.36 0.36 63 1022.6
20260831223218 60 177 3.0 6.0 0.04 0.36 0.36 62 1022.6
20260831222736 60 177 4.0 6.0 0.06 0.36 0.36 63 1022.5
20260831222249 60 178 3.0 7.0 0.10 0.36 0.36 65 1022.4
20260831221742 59 177 3.0 7.0 0.13 0.36 0.36 65 1022.3
20260831221235 59 178 4.0 7.0 0.15 0.36 0.36 65 1022.3
20260831220728 60 184 4.0 6.0 0.16 0.36 0.36 63 1022.4
20260831220223 60 194 2.0 12.0 0.20 0.36 0.36 62 1022.7
20260831215716 59 194 4.0 12.0 0.35 0.36 0.36 63 1022.4
20260831215251 59 145 8.0 12.0 0.36 0.36 0.36 66 1022.2
20260831214724 59 124 6.0 14.0 0.36 0.36 0.36 66 1022.2
20260831214219 58 99 8.0 14.0 0.34 0.34 0.34 65 1021.7
20260831213717 59 138 6.0 10.0 0.33 0.33 0.33 64 1021.8
20260831213231 59 181 4.0 17.0 0.32 0.32 0.32 63 1021.9
20260831212725 59 190 6.0 26.0 0.30 0.30 0.30 61 1021.6
20260831212219 60 205 15.0 26.0 0.26 0.26 0.26 60 1021.6
20260831211732 60 200 14.0 28.0 0.23 0.23 0.23 60 1021.5
20260831211227 61 205 13.0 27.0 0.21 0.21 0.21 57 1020.7
20260831210720 61 234 16.0 32.0 0.20 0.20 0.20 56 1020.7
20260831210236 64 191 14.0 32.0 0.16 0.16 0.16 51 1020.6
20260831205749 69 205 16.0 29.0 0.01 0.01 0.01 43 1020.0
20260831205225 71 231 19.0 29.0 0.00 0.00 0.00 35 1019.2
20260831204719 74 211 17.0 28.0 0.00 0.00 0.00 30 1018.4
20260831204234 79 227 7.0 17.0 0.00 0.00 0.00 22 1018.0
20260831203727 80 131 10.0 12.0 0.00 0.00 0.00 22 1017.0
20260831203221 80 123 7.0 12.0 0.00 0.00 0.00 23 1016.9
20260831202715 79 100 5.0 15.0 0.00 0.00 0.00 24 1016.7
20260831202249 80 108 7.0 19.0 0.00 0.00 0.00 24 1016.7
20260831201722 81 131 13.0 19.0 0.00 0.00 0.00 23 1016.7
20260831201220 81 134 12.0 18.0 0.00 0.00 0.00 22 1016.9
20260831200714 82 141 10.0 19.0 0.00 0.00 0.00 22 1017.2
20260831200229 82 127 11.0 22.0 0.00 0.00 0.00 22 1017.4
20260831195722 82 137 12.0 24.0 0.00 0.00 0.00 22 1017.6
20260831195217 85 136 13.0 24.0 0.00 0.00 0.00 21 1017.6
20260831194732 86 211 6.0 14.0 0.00 0.00 0.00 17 1017.4
20260831194226 85 221 6.0 9.0 0.00 0.00 0.00 17 1017.4
20260831193720 83 223 4.0 8.0 0.00 0.00 0.00 18 1017.4
20260831193218 82 222 1.0 8.0 0.00 0.00 0.00 19 1017.5
20260831192732 82 222 6.0 8.0 0.00 0.00 0.00 20 1017.6
20260831192226 82 222 4.0 8.0 0.00 0.00 0.00 21 1017.9
20260831191740 82 222 5.0 10.0 0.00 0.00 0.00 20 1018.1
20260831191233 82 222 6.0 10.0 0.00 0.00 0.00 20 1018.0
20260831190726 82 221 6.0 11.0 0.00 0.00 0.00 20 1018.2
20260831190222 82 221 6.0 11.0 0.00 0.00 0.00 21 1018.3
20260831185715 83 221 7.0 10.0 0.00 0.00 0.00 20 1018.2
20260831185250 83 221 6.0 10.0 0.00 0.00 0.00 20 1018.2
20260831184726 84 221 4.0 14.0 0.00 0.00 0.00 18 1018.3
20260831184221 84 221 8.0 14.0 0.00 0.00 0.00 19 1018.3
20260831183715 83 219 7.0 14.0 0.00 0.00 0.00 19 1018.3
20260831183230 83 219 6.0 14.0 0.00 0.00 0.00 18 1018.5
20260831182723 84 215 8.0 12.0 0.00 0.00 0.00 18 1018.5
20260831182217 84 215 8.0 12.0 0.00 0.00 0.00 18 1018.6
20260831181731 85 215 9.0 12.0 0.00 0.00 0.00 16 1018.7
20260831181229 84 213 7.0 12.0 0.00 0.00 0.00 18 1018.8
20260831180743 83 218 6.0 17.0 0.00 0.00 0.00 19 1018.8
20260831180218 83 221 10.0 17.0 0.00 0.00 0.00 18 1018.8
20260831175731 84 225 7.0 16.0 0.00 0.00 0.00 19 1018.9
20260831175225 84 218 8.0 16.0 0.00 0.00 0.00 19 1019.0
20260831174719 83 209 9.0 12.0 0.00 0.00 0.00 18 1019.0
20260831174253 83 207 7.0 14.0 0.00 0.00 0.00 19 1019.1
20260831173726 83 198 10.0 14.0 0.00 0.00 0.00 19 1019.1
20260831173240 82 209 7.0 13.0 0.00 0.00 0.00 20 1019.1
20260831172717 81 207 9.0 13.0 0.00 0.00 0.00 21 1019.2
20260831172232 82 215 10.0 16.0 0.00 0.00 0.00 20 1019.3
20260831171725 82 215 9.0 16.0 0.00 0.00 0.00 21 1019.3
20260831171219 80 202 6.0 15.0 0.00 0.00 0.00 23 1019.3
20260831170733 80 202 7.0 15.0 0.00 0.00 0.00 22 1019.5
20260831170228 82 292 9.0 13.0 0.00 0.00 0.00 22 1019.5
20260831165216 79 30 5.0 9.0 0.00 0.00 0.00 27 1019.4
20260831164735 79 30 5.0 10.0 0.00 0.00 0.00 29 1019.5
20260831164228 78 37 5.0 10.0 0.00 0.00 0.00 29 1019.5
20260831163721 78 46 5.0 6.0 0.00 0.00 0.00 32 1019.4
20260831163236 77 46 3.0 6.0 0.00 0.00 0.00 32 1019.4
20260831162728 77 46 3.0 6.0 0.00 0.00 0.00 34 1019.3
20260831162222 76 46 3.0 6.0 0.00 0.00 0.00 35 1019.3
20260831161716 76 47 2.0 4.0 0.00 0.00 0.00 33 1019.3
20260831161231 76 47 2.0 5.0 0.00 0.00 0.00 34 1019.3
20260831160724 75 47 3.0 5.0 0.00 0.00 0.00 34 1019.2
20260831160223 74 47 1.0 5.0 0.00 0.00 0.00 36 1019.2
20260831155717 74 47 4.0 5.0 0.00 0.00 0.00 33 1019.1
20260831155251 74 47 1.0 5.0 0.00 0.00 0.00 34 1019.1
20260831154724 74 47 1.0 3.0 0.00 0.00 0.00 35 1019.1
20260831154218 74 47 2.0 4.0 0.00 0.00 0.00 35 1019.0
20260831153732 73 47 2.0 4.0 0.00 0.00 0.00 35 1019.0
20260831153225 73 47 2.0 4.0 0.00 0.00 0.00 37 1019.0
20260831152719 73 47 1.0 4.0 0.00 0.00 0.00 35 1019.0
20260831152232 73 47 2.0 4.0 0.00 0.00 0.00 36 1018.8
20260831151725 73 49 1.0 4.0 0.00 0.00 0.00 37 1018.9
20260831151224 73 49 2.0 4.0 0.00 0.00 0.00 35 1018.8
20260831150737 73 49 2.0 4.0 0.00 0.00 0.00 34 1018.8
20260831150232 72 49 1.0 3.0 0.00 0.00 0.00 33 1018.7
20260831145745 72 49 1.0 3.0 0.00 0.00 0.00 35 1018.7
20260831145239 72 49 1.0 2.0 0.00 0.00 0.00 37 1018.7
20260831144732 72 49 1.0 2.0 0.00 0.00 0.00 36 1018.6
20260831144225 71 49 0.0 1.0 0.00 0.00 0.00 36 1018.6
20260831143719 71 49 0.0 0.0 0.00 0.00 0.00 35 1018.7
20260831143232 70 49 0.0 0.0 0.00 0.00 0.00 39 1018.7
20260831142725 70 49 0.0 0.0 0.00 0.00 0.00 43 1018.7
20260831142224 69 49 0.0 0.0 0.00 0.00 0.00 42 1018.7
20260831141738 68 49 0.0 2.0 0.00 0.00 0.00 45 1018.7
20260831141231 67 49 0.0 2.0 0.00 0.00 0.00 49 1018.6
20260831140724 66 49 2.0 2.0 0.00 0.00 0.00 49 1018.6
20260831140219 64 49 1.0 3.0 0.00 0.00 0.00 53 1018.6
20260831135732 64 49 1.0 3.0 0.00 0.00 0.00 52 1018.5
20260831135225 64 49 2.0 4.0 0.00 0.00 0.00 52 1018.5
20260831134739 63 92 3.0 4.0 0.00 0.00 0.00 54 1018.5
20260831134232 63 92 0.0 3.0 0.00 0.00 0.00 53 1018.4
20260831133726 63 92 1.0 4.0 0.00 0.00 0.00 53 1018.3
20260831133224 64 92 2.0 4.0 0.00 0.00 0.00 51 1018.2
20260831132717 63 92 2.0 4.0 0.00 0.00 0.00 53 1018.2
20260831132232 63 92 3.0 4.0 0.00 0.00 0.00 54 1018.2
20260831131745 63 92 3.0 3.0 0.00 0.00 0.00 52 1018.1
20260831131218 63 92 1.0 4.0 0.00 0.00 0.00 54 1018.1
20260831130752 63 92 2.0 4.0 0.00 0.00 0.00 51 1018.1
20260831130226 62 92 3.0 4.0 0.00 0.00 0.00 54 1018.0
20260831125719 62 92 3.0 4.0 0.00 0.00 0.00 56 1017.9
20260831125217 62 92 2.0 4.0 0.00 0.00 0.00 57 1017.9
20260831124732 61 92 2.0 3.0 0.00 0.00 0.00 58 1017.8
20260831124226 61 92 2.0 2.0 0.00 0.00 0.00 58 1017.8
20260831123741 61 92 2.0 2.0 0.00 0.00 0.00 59 1017.7
20260831123214 61 92 1.0 2.0 0.00 0.00 0.00 60 1017.6
20260831122728 61 92 1.0 2.0 0.00 0.00 0.00 60 1017.6
20260831122242 62 92 0.0 2.0 0.00 0.00 0.00 58 1017.7
20260831121715 63 92 1.0 3.0 0.00 0.00 0.00 57 1017.6
20260831121229 63 92 2.0 3.0 0.00 0.00 0.00 57 1017.6
20260831120727 63 92 1.0 3.0 0.00 0.00 0.00 55 1017.7
20260831120222 63 92 2.0 3.0 0.00 0.00 0.00 56 1017.6
20260831115716 63 92 1.0 3.0 0.00 0.00 0.00 58 1017.7
20260831115230 63 92 2.0 3.0 0.00 0.00 0.00 58 1017.8
20260831114723 63 92 1.0 3.0 0.00 0.00 0.00 57 1017.7
20260831114218 63 92 2.0 3.0 0.00 0.00 0.00 58 1017.7
20260831113731 63 92 0.0 4.0 0.00 0.00 0.00 58 1017.7
20260831113225 63 92 2.0 4.0 0.00 0.00 0.00 58 1017.7
20260831112739 63 92 2.0 3.0 0.00 0.00 0.00 58 1017.7
20260831112236 64 92 3.0 3.0 0.00 0.00 0.00 56 1017.7
20260831111729 64 92 1.0 4.0 0.00 0.00 0.00 55 1017.7
20260831111223 65 92 1.0 4.0 0.00 0.00 0.00 52 1017.7
20260831110716 65 92 3.0 3.0 0.00 0.00 0.00 49 1017.7
20260831110232 65 92 2.0 3.0 0.00 0.00 0.00 50 1017.8
20260831105745 64 92 1.0 2.0 0.00 0.00 0.00 52 1017.6
20260831105219 64 92 0.0 1.0 0.00 0.00 0.00 52 1017.6
20260831104733 64 92 0.0 3.0 0.00 0.00 0.00 51 1017.6
20260831104227 65 92 1.0 3.0 0.00 0.00 0.00 51 1017.6
20260831103745 65 92 0.0 3.0 0.00 0.00 0.00 51 1017.7
20260831103218 65 92 1.0 3.0 0.00 0.00 0.00 49 1017.7
20260831102752 66 92 1.0 3.0 0.00 0.00 0.00 47 1017.7
20260831102225 66 92 1.0 2.0 0.00 0.00 0.00 45 1017.7
20260831101718 66 92 0.0 2.0 0.00 0.00 0.00 45 1017.7
20260831101253 67 92 0.0 3.0 0.00 0.00 0.00 40 1017.7
20260831100725 69 92 0.0 4.0 0.00 0.00 0.00 36 1017.7
20260831100220 71 92 2.0 7.0 0.00 0.00 0.00 31 1017.6
20260831095733 71 92 3.0 7.0 0.00 0.00 0.00 29 1017.6
20260831095227 71 92 4.0 7.0 0.00 0.00 0.00 29 1017.5
20260831094725 69 92 3.0 7.0 0.00 0.00 0.00 32 1017.4
20260831094218 68 92 3.0 8.0 0.00 0.00 0.00 34 1017.4
20260831093732 68 92 4.0 8.0 0.00 0.00 0.00 34 1017.4
20260831093225 68 92 3.0 6.0 0.00 0.00 0.00 34 1017.3
20260831092718 68 92 3.0 8.0 0.00 0.00 0.00 34 1017.3
20260831092233 69 92 5.0 8.0 0.00 0.00 0.00 34 1017.3
20260831091726 69 92 5.0 8.0 0.00 0.00 0.00 33 1017.2
20260831091217 69 92 5.0 10.0 0.00 0.00 0.00 34 1017.3
20260831090715 69 92 6.0 10.0 0.00 0.00 0.00 34 1017.2
20260831090231 68 92 7.0 10.0 0.00 0.00 0.00 34 1017.2
20260831085724 69 92 4.0 9.0 0.00 0.00 0.00 33 1017.1
20260831085218 69 92 6.0 10.0 0.00 0.00 0.00 32 1017.1
20260831084732 69 92 9.0 10.0 0.00 0.00 0.00 32 1017.2
20260831084246 69 92 6.0 8.0 0.00 0.00 0.00 32 1017.1
20260831083720 68 92 6.0 8.0 0.00 0.00 0.00 33 1017.1
20260831083214 69 92 5.0 7.0 0.00 0.00 0.00 33 1017.3
20260831082731 69 92 5.0 8.0 0.00 0.00 0.00 33 1017.3
20260831082225 69 92 5.0 8.0 0.00 0.00 0.00 33 1017.3
20260831081719 69 92 4.0 9.0 0.00 0.00 0.00 34 1017.3
20260831081233 70 92 6.0 10.0 0.00 0.00 0.00 33 1017.3
20260831080727 71 92 6.0 10.0 0.00 0.00 0.00 33 1017.3
20260831080221 72 92 6.0 13.0 0.00 0.00 0.00 32 1017.4
20260831075715 71 92 8.0 13.0 0.00 0.03 0.00 31 1017.4
20260831075229 71 92 6.0 14.0 0.00 0.03 0.00 33 1017.4
20260831074727 72 92 9.0 14.0 0.00 0.03 0.00 33 1017.6
20260831074221 72 89 8.0 13.0 0.00 0.03 0.00 34 1017.5
20260831073715 72 89 8.0 13.0 0.00 0.03 0.00 34 1017.5
20260831073229 72 89 7.0 14.0 0.00 0.03 0.00 32 1017.6
20260831072722 72 87 9.0 14.0 0.00 0.03 0.00 34 1017.5
20260831072237 71 84 7.0 10.0 0.00 0.03 0.00 35 1017.5
20260831071730 71 84 5.0 10.0 0.00 0.03 0.00 37 1017.5
20260831071224 71 84 7.0 10.0 0.00 0.03 0.00 36 1017.6
20260831070737 70 84 6.0 9.0 0.00 0.03 0.00 37 1017.6
20260831070235 70 84 3.0 6.0 0.00 0.03 0.00 37 1017.6
20260831065727 70 84 3.0 6.0 0.00 0.04 0.00 37 1017.6
20260831065221 70 84 3.0 8.0 0.00 0.04 0.00 39 1017.5
20260831064715 71 84 4.0 11.0 0.00 0.04 0.00 38 1017.5
20260831064229 71 84 5.0 11.0 0.00 0.04 0.00 38 1017.6
20260831063723 71 84 6.0 10.0 0.00 0.04 0.00 37 1017.5